Location: Bon Acre
(42.6442°N, 73.5758°W)
Time: 16:26:41
(UTC+00:00)

Cosmos 2263 Rocket - Pass Details

Date: 14 December 2025
Orbit: 821 x 849 km, 71.0° (Epoch: 22 January)

Event Time Altitude Azimuth Distance (km) Brightness Sun altitude
Rises 22:34:56 0° 335° (NNW) 3,409 5.4 -13.0°
Reaches altitude 10° 22:37:23 10° 336° (NNW) 2,474 4.7 -13.4°
Maximum altitude 22:43:05 88° 66° (ENE) 854 2.2 -14.4°
Drops below altitude 10° 22:48:46 10° 157° (SSE) 2,466 4.6 -15.4°
Sets 22:51:12 0° 157° (SSE) 3,397 5.3 -15.9°
